Showing default

QIANFAN-8, 60386

Orbit data source: Space-Track

QIANFAN-8, 60386 is a Chinese payload satellite in LEO that was launched on Tue, 06 Aug 2024 UTC via a CHANG ZHENG 6A launch vehicle from the Taiyaun Space Center, China (TSC). Payload-class satellites include a variety of spacecraft equipped with specific instruments for various scientific and technological missions. These include communications satellites like Starlink; space stations such as the ISS; scientific satellites like the Hubble; Earth observation satellites from companies like Planet Labs, Umbra, and HawkEye 360; GPS; miniature CubeSats for education and research; and military/defense satellites.

Loading next visibility...
Identifier
60386, 2024-140H
Orbit
LEO
Country
Flag of CNCN / PRC
Related business
Manufacturer
SECM
Mission
Operational Commercial Communications
Bus & Motor
QIANFAN, Unknown motor
Mass
267 kg wet, ~267 kg dry
Launch date (UTC)
2024-08-06 (2 years ago)
Launch vehicle
CHANG ZHENG 6A
Launch site
Taiyaun Space Center, China (TSC)
Object type
Payload
Rocket body
Debris
Shape & HBR
Box + 1 Pan, 5.0 m
Radar Cross Section
13.200 m², Large (>1 m²)

Expand to show TLE details & history
Last TLE update: 7 hours ago

TLE from 7 hours ago
0 QIANFAN-8
1 60386U 24140H   26118.80065264  .00000054  00000-0  65197-4 0  9994
2 60386  88.9692 285.0538 0017485 156.4941 203.7013 13.51007989 85858
Epoch: 2026-04-28T19:12Z
TLE epoch observation values (Epoch: 2026-04-28T19:12:56.388Z)
Latitude
-0°
Longitude
140.04809°
Altitude
1,083.434 km
Speed
7.305 km/s
True Right ascension
19h 00m 12s
True Declination
0° 00' 00"
Sunlit
Object was in daylight at epoch
Visualization orbit readout
Latitude
Unknown
Longitude
Unknown
Altitude
Unknown
Speed
Unknown
Apparent Right ascension
Unknown
Apparent Declination
Unknown
Sunlit
N/A
Visualization observer readout
Local Sidereal Time
10:08:03
Azimuth
Unknown
Elevation
Unknown
Doppler factor
Unknown
Orbital elements
Apogee altitude
1,078.619 km
Perigee altitude
1,052.588 km
Semi-major axis
7,443.74 km
Eccentricity
0.00175
Inclination
88.9692°
RAAN
285.0538°
Arg. of periapsis
156.4941°
True anomaly
203.62092°
Mean anomaly
203.7013°
Eccentric anomaly
203.66109°
Mean motion
3.37953 °/min
Orbital period
106.52 mins
BSTAR
0.000065197
Loading maneuver chart data...
Computing Atmospheric mass density...
Loading historical data...
Loading historical data...
Loading historical data...
Loading historical data...
Loading historical data...
Loading historical data...
Loading historical data...

Documentation

Showing up to 5 results
|